Showing default

OPS 6582 (TRANSIT 5E-5), 959

Orbit data source: Space-Track

OPS 6582 (TRANSIT 5E-5), 959 is a payload satellite owned by USN BuWeps (US) in LEO that was launched on Sun, 13 Dec 1964 UTC via a THOR ABLESTAR launch vehicle from the Air Force Western Test Range (AFWTR). Payload-class satellites include a variety of spacecraft equipped with specific instruments for various scientific and technological missions. These include communications satellites like Starlink; space stations such as the ISS; scientific satellites like the Hubble; Earth observation satellites from companies like Planet Labs, Umbra, and HawkEye 360; GPS; miniature CubeSats for education and research; and military/defense satellites.

Loading next visibility...
Identifier
959, 1964-083C
Orbit
LEO
Country
Flag of USUS
Related business
Manufacturer
APL
Mission
Spacecraft
Bus & Motor
TRANSIT 5, Unknown motor
Mass
77 kg wet, 77 kg dry
Launch date (UTC)
1964-12-13 (61 years ago)
Launch vehicle
THOR ABLESTAR
Launch site
Air Force Western Test Range (AFWTR)
Object type
Payload
Rocket body
Debris
Shape & HBR
Unknown
Radar Cross Section
Large (>1 m²)

Expand to show TLE details & history
Last TLE update: 6 hours ago

TLE from 6 hours ago
0 OPS 6582 (TRANSIT 5E-5)
1 00959U 64083C   26038.94439746  .00000231  00000-0  28422-3 0  9996
2 00959  90.0069 187.1758 0040821 326.7427 147.2690 13.62450526 32617
Epoch: 2026-02-07T22:39Z
TLE epoch observation values (Epoch: 2026-02-07T22:39:55.940Z)
Latitude
65.81675°
Longitude
-110.85265°
Altitude
1,063.73 km
Speed
7.313 km/s
True Right ascension
00h 28m 45s
True Declination
65° 41' 36"
Sunlit
Object was in daylight at epoch
Visualization orbit readout
Latitude
Unknown
Longitude
Unknown
Altitude
Unknown
Speed
Unknown
Apparent Right ascension
Unknown
Apparent Declination
Unknown
Sunlit
N/A
Visualization observer readout
Local Sidereal Time
07:20:01
Azimuth
Unknown
Elevation
Unknown
Doppler factor
Unknown
Orbital elements
Apogee altitude
1,054.047 km
Perigee altitude
993.616 km
Semi-major axis
7,401.968 km
Eccentricity
0.00408
Inclination
90.0069°
RAAN
187.1758°
Arg. of periapsis
326.7427°
True anomaly
147.52084°
Mean anomaly
147.269°
Eccentric anomaly
147.39503°
Mean motion
3.40818 °/min
Orbital period
105.63 mins
BSTAR
0.00028422
Loading maneuver chart data...
Computing Atmospheric mass density...

Documentation

Showing up to 5 results
|